FW0689 Weather Reports


Display with metric or nautical units.
time (UTC)temp
F
wind
direction
speed
MPH
gust
MPH
rain 1hr
in
rain 24hr
in
rain mn
in
humidity
%
barometer
mb
20260904154042 65 244 0.0 0.0 0.00 0.00 0.00 40 1015.0
20260904154033 65 249 0.0 0.0 0.00 0.00 0.00 40 1014.9
20260904145523 65 266 0.0 0.0 0.00 0.00 0.00 40 1015.1
20260904144524 65 267 0.0 0.0 0.00 0.00 0.00 40 1015.0
20260904143522 64 261 0.0 0.0 0.00 0.00 0.00 40 1014.9
20260904142524 64 266 0.0 0.0 0.00 0.00 0.00 41 1014.6
20260904141524 64 274 0.0 0.0 0.00 0.00 0.00 41 1014.2
20260904140524 64 278 0.0 0.0 0.00 0.00 0.00 41 1014.3
20260904135539 63 272 0.0 0.0 0.00 0.00 0.00 41 1014.2
20260904134624 63 276 0.0 0.0 0.00 0.00 0.00 41 1014.3
20260904133625 63 281 0.0 0.0 0.00 0.00 0.00 41 1014.1
20260904132722 63 277 0.0 0.0 0.00 0.00 0.00 41 1014.2
20260904131724 63 268 0.0 0.0 0.00 0.00 0.00 41 1013.7
20260904130823 64 249 0.0 0.0 0.00 0.00 0.00 41 1014.2
20260904125921 64 268 0.0 0.0 0.00 0.00 0.00 41 1013.9
20260904124922 64 259 0.0 0.0 0.00 0.00 0.00 40 1013.9
20260904123922 64 259 0.0 0.0 0.00 0.00 0.00 41 1013.9
20260904122923 64 270 0.0 0.0 0.00 0.00 0.00 41 1014.0
20260904121923 64 249 0.0 0.0 0.00 0.00 0.00 41 1013.9
20260904120923 64 268 0.0 0.0 0.00 0.00 0.00 41 1013.9
20260904115923 64 250 0.0 0.0 0.00 0.00 0.00 41 1013.7
20260904114923 64 276 0.0 0.0 0.00 0.00 0.00 41 1013.5
20260904113923 65 249 0.0 0.0 0.00 0.00 0.00 41 1013.5
20260904111924 66 277 0.0 0.0 0.00 0.00 0.00 40 1013.6
20260904105016 69 220 0.0 0.0 0.00 0.00 0.00 39 1012.5
20260904103543 68 207 0.0 0.0 0.00 0.00 0.00 39 1012.8
20260904093745 68 215 0.0 0.0 0.00 0.00 0.00 39 1012.7
20260904091822 68 228 0.0 0.0 0.00 0.00 0.00 40 1012.9
20260904090822 68 230 0.0 0.0 0.00 0.00 0.00 40 1012.8
20260904084823 68 232 0.0 0.0 0.00 0.00 0.00 40 1013.0
20260904083822 68 228 0.0 0.0 0.00 0.00 0.00 39 1013.0
20260904082823 68 236 0.0 0.0 0.00 0.00 0.00 38 1012.9
20260904081921 68 226 0.0 0.0 0.00 0.00 0.00 39 1013.0
20260904080924 69 227 0.0 0.0 0.00 0.00 0.00 38 1013.0
20260904080022 69 234 0.0 0.0 0.00 0.00 0.00 39 1013.0
20260904075024 69 218 0.0 0.0 0.00 0.00 0.00 39 1012.9
20260904074022 69 226 0.0 0.0 0.00 0.00 0.00 39 1013.0
20260904073038 68 205 0.0 0.0 0.00 0.00 0.00 39 1013.2
20260904072125 68 237 0.0 0.0 0.00 0.00 0.00 39 1013.4
20260904065223 67 216 0.0 0.0 0.00 0.00 0.00 40 1013.8
20260904064322 67 211 0.0 0.0 0.00 0.00 0.00 40 1013.8
20260904063323 67 210 0.0 0.0 0.00 0.00 0.00 40 1013.9
20260904062324 67 208 0.0 0.0 0.00 0.00 0.00 39 1014.1
20260904061323 68 217 0.0 0.0 0.00 0.00 0.00 38 1014.4
20260904055323 68 248 0.0 0.0 0.00 0.00 0.00 39 1014.5
20260904054322 68 230 0.0 0.0 0.00 0.00 0.00 39 1014.6
20260904052424 68 226 0.0 0.0 0.00 0.00 0.00 40 1014.8
20260904050424 67 214 0.0 0.0 0.00 0.00 0.00 40 1015.1
20260904044542 68 215 0.0 0.0 0.00 0.00 0.00 40 1015.2
20260904043525 67 217 0.0 0.0 0.00 0.00 0.00 40 1015.5
20260904041524 67 226 0.0 0.0 0.00 0.00 0.00 40 1015.3
20260904035524 67 214 0.0 0.0 0.00 0.00 0.00 40 1015.7
20260904034622 67 205 0.0 0.0 0.00 0.00 0.00 40 1015.8
20260904033624 67 214 0.0 0.0 0.00 0.00 0.00 40 1015.9
20260904032625 67 214 0.0 0.0 0.00 0.00 0.00 40 1016.1
20260904031621 67 209 0.0 0.0 0.00 0.00 0.00 40 1016.1